Ana Sayfa
METAR-TAF:

METAR-TAF

Havaalanları :

Franklin County Airport

Louisburg, Kuzey Carolina, Amerika Birleşik Devletleri

Enlem: 36-01-24N, Boylam: 078-19-49W, yükseklik: 113 m

Güncel hava durumu gözlemi

Rapor saat 10:15 UTC de 20 dakika önce yapıldı.
Rüzgar batıdan 3 kt
Sıcaklık 0°C
Nem 55%
Basınç 1020 hPa
Görüş mesafesi: 16.1 km
Açık gökyüzü

METAR: KLHZ 281015Z AUTO 27003KT 10SM CLR 00/M08 A3012 RMK AO2

Saat: 05:35 (10:35 UTC)


TAF: eksik

4.000'den fazla havaalanı için hava durumu gözlemleri ve tahminleri (METAR ve TAF raporları).

Kullanılabilir istasyonlar harita üzerinde sarı ve kırmızı noktalarla gösterilir.

İstasyonun adını görmek için fareyi noktanın üzerinde gezdirin.

Sonrasında hava gözlem ve tahminlerini görmek için tıklayın.

Haritayı değiştirmek için: yaklaştırmak için siyah artı işaretli yeşil düğmeye ve uzaklaştırmak için de eksi işaretli düğmeye hızla tıklayın; bitişik haritalar için yeşil okları kullanın.


METAR-TAF: